Tracking 18624 objects as of 29-April-2017
HD Live streaming from Space Station
objects crossing your sky now

BONUM 1

Track BONUM 1 now!
BONUM 1 is classified as:


NORAD ID: 25546
Int'l Code: 1998-068A
Perigee: 36,121.7 km
Apogee: 36,163.7 km
Inclination: 4.1 °
Period: 1,454.0 minutes
Semi major axis: 42513 km
RCS: 0.003 m2 (small)
Launch date: November 22, 1998
Source: Commonwealth of Independent States (former USSR) (CIS)
Launch site: AIR FORCE EASTERN TEST RANGE (AFETR)

Television broadcasting; 8 Ku-band, Siberia or Europe, selected.
Your satellite tracking list
Your tracking list is empty





NASA's NSSDC Master Catalog

Two Line Element Set (TLE):
1 25546U 98068A   17117.22634426 -.00000270 +00000-0 +00000-0 0  9999
2 25546 004.1270 067.5275 0004941 270.8461 089.0143 00.99039613067486
Source of the keplerian elements: AFSPC